Location: Eckley Miners' Village
(40.9930°N, 75.8630°W)
Time: 16:17:37
(UTC-05:00)

BlueWalker 3 - Pass Details

Date: 14 December 2023
Orbit: 486 x 500 km, 53.2° (Epoch: 26 February)

Event Time Altitude Azimuth Distance (km) Brightness Sun altitude
Rises 19:15:11 0° 243° (WSW) 2,595 6.6 -29.2°
Reaches altitude 10° 19:17:24 10° 249° (WSW) 1,715 5.5 -29.6°
Enters shadow 19:19:14 25° 261° (W) 1,044 4.1 -29.9°
